Location: Newark
(15.7835°S, 47.8992°W)
Time: 02:44:26
(UTC+00:00)

Envisat - Visible Passes

Search period start: 01 October 2020 00:00
Search period end: 11 October 2020 00:00
Orbit: 764 x 766 km, 98.1° (Epoch: 30 September)

Date Brightness Start Highest point End Pass type
(mag) Time Alt. Az. Time Alt. Az. Time Alt. Az.
01 Oct 3.9 08:24:42 10° NNE 08:29:39 55° ESE 08:34:38 10° S visible
02 Oct 5.8 07:49:23 10° ENE 07:53:03 20° ESE 07:56:44 10° SSE visible
02 Oct 5.6 21:50:15 10° SSW 21:54:17 24° WSW 21:58:17 10° NW visible
04 Oct 4.6 08:13:36 10° NE 08:18:20 40° ESE 08:23:06 10° S visible
04 Oct 6.4 22:17:47 10° SW 22:19:30 12° WSW 22:21:12 10° W visible
05 Oct 6.2 07:38:57 10° ENE 07:41:47 15° ESE 07:44:38 10° SE visible
05 Oct 5.1 21:38:30 10° SSW 21:42:59 32° WSW 21:47:26 10° NW visible
07 Oct 5.2 08:02:38 10° NE 08:07:02 30° ESE 08:11:26 10° SSE visible
07 Oct 6.2 22:05:12 10° SW 22:08:14 16° WSW 22:11:15 10° WNW visible
08 Oct 6.5 07:29:14 10° E 07:30:31 11° ESE 07:31:48 10° ESE visible
08 Oct 4.5 21:26:52 10° S 21:31:40 43° WSW 21:36:26 10° NW visible
10 Oct 5.7 07:51:50 10° NE 07:55:44 23° ESE 07:59:39 10° SSE visible
10 Oct 5.9 21:53:09 10° SSW 21:56:57 21° WSW 22:00:44 10° WNW visible
